Probability
0 0 0 0 0 0 0 0 0 0 0 0 0 0 0 0 0 0 0 0 0 0 0 0 0 0 0 0 0 0 0 0 0 0 0 0 0 0 0 0 0 0 0 0
0 0 0 0 0 0 0 0 0 0 0 0 0 0 0 0 0 0 0 0 0 0 0 0 0 0 0 0 0 0 0 0 0 0 0 0 0 0 0 0 0 0 0 0
0 0 0 0 0 0 0 0 0 0 0 0 0 0 0 0 0 0 0 0 0 0 0 0 0 0 0 0 0 0 0 0 0 0 0 0 0 0 0 0 0 0 0 0
0 0 0 0 0 0 0 0 0 0 0 0 0 0 0 0 0 0 0 0 0 0 0 0 0 0 0 0 0 0 0 0 0 0 0 0 0 0 0 0 0 0 0 0
0 0 0 0 0 0 0 0 0 0 0 0 0 0 0 0 0 0 0 0 0 0 0 0 0 0 0 0 0 0 0 0 0 0 0 0 0 0 0 0 0 0 0 0
0 0 0 0 0 0 0 0 0 0 0 0 0 0 0 0 0 0 0 0 0 0 0 0 0 0 0 0 0 0 0 0 0 0 0 0 0 0 0 0 0 0 0 0
0 0 0 0 0 0 0 0 0 0 0 0 0 0 0 0 0 0 0 0 0 0 0 0 0 0 0 0 0 0 0 0 0 0 0 0 0 0 0 0 0 0 0 0
0 0 0 0 0 0 0 0 0 0 0 0 0 0 0 0 0 0 0 0 0 0 0 0 0 0 0 0 0 0 0 0 0 0 0 0 0 0 0 0 0 0 0 0
0 0 0 0 0 0 0 0 0 0 0 0 0 0 0 0 0 0 0 0 0 0 0 0 0 0 0 0 0 0 0 0 0 0 0 0 0 0 0 0 0 0 0 0
0 0 0 0 0 0 0 0 0 0 0 0 0 0 0 0 0 0 0 0 0 0 0 0 0 0 0 0 0 0 0 0 0 0 0 0 0 0 0 0 0 0 0 0
0 0 0 0 0 0 0 0 0 0 0 0 0 0 0 0 0 0 0 0 0 0 0 0 0 0 0 0 0 0 0 0 0 0 0 0 0 0 0 0 0 0 0 0
0 0 0 0 0 0 0 0 0 0 0 0 0 0 0 0 0 0 0 0 0 0 0 0 0 0 0 0 0 0 0 0 0 0 0 0 0 0 0 0 0 0 0 0
0 0 0 0 0 0 0 0 0 0 0 0 0 0 0 0 0 0 0 0 0 0 0 0 0 0 0 0 0 0 0 0 0 0 0 0 0 0 0 0 0 0 0 0
0 0 0 0 0 0 0 0 0 0 0 0 0 0 0 0 0 0 0 0 0 0 0 0 0 0 0 0 0 0 0 0 0 0 0 0 0 0 0 0 0 0 0 0
0 0 0 0 0 0 0 0 0 0 0 0 0 0 0 0 0 0 0 0 0 0 0 0 0 0 0 0 0 0 0 0 0 0 0 0 0 0 0 0 0 0 0 0
0 0 0 0 0 0 0 0 0 0 0 0 0 0 0 0 0 0 0 0 0 0 0 0 0 0 0 0 0 0 0 0 0 0 0 0 0 0 0 0 0 0 0 0
0 0 0 0 0 0 0 0 0 0 0 0 0 0 0 0 0 0 0 0 0 0 0 0 0 0 0 0 0 0 0 0 0 0 0 0 0 0 0 0 0 0 0 0
0 0 0 0 0 0 0 0 0 0 0 0 0 0 0 0 0 0 0 0 0 0 0 0 0 0 0 0 0 0 0 0 0 0 0 0 0 0 0 0 0 0 0 0
0 0 0 0 0 0 0 0 0 0 0 0 0 0 0 0 0 0 0 0 0 0 0 0 0 0 0 0 0 0 0 0 0 0 0 0 0 0 0 0 0 0 0 0
0 0 0 0 0 0 0 0 0 0 0 0 0 0 0 0 0 0 0 0 0 0 0 0 0 0 0 0 0 0 0 0 0 0 0 0 0 0 0 0 0 0 0 0
0 0 0 0 0 0 0 0 0 0 0 0 0 0 0 0 0 0 0 0 0 0 0 0 0 0 0 0 0 0 0 0 0 0 0 0 0 0 0 0 0 0 0 0
0 0 0 0 0 0 0 0 0 0 0 0 0 0 0 0 0 0 0 0 0 0 0 0 0 0 0 0 0 0 0 0 0 0 0 0 0 0 0 0 0 0 0 0
0 0 0 0 0 0 0 0 0 0 0 0 0 0 0 0 0 0 0 0 0 0 0 0 0 0 0 0 0 0 0 0 0 0 0 0 0 0 0 0 0 0 0 0
0 0 0 0 0 0 0 0 0 0 0 0 0 0 0 0 0 0 0 0 0 0 0 0 0 0 0 0 0 0 0 0 0 0 0 0 0 0 0 0 0 0 0 0
0 0 0 0 0 0 0 0 0 0 0 0 0 0 0 0 0 0 0 0 0 0 0 0 0 0 0 0 0 0 0 0 0 0 0 0 0 0 0 0 0 0 0 0
0 0 0 0 0 0 0 0 0 0 0 0 0 0 0 0 0 0 0 0 0 0 0 0 0 0 0 0 0 0 0 0 0 0 0 0 0 0 0 0 0 0 0 0
0 0 0 0 0 0 0 0 0 0 0 0 0 0 0 0 0 0 0 0 0 0 0 0 0 0 0 0 0 0 0 0 0 0 0 0 0 0 0 0 0 0 0 0
Wind_Speed
3 2 3 5 6 8 8 8 8 8 8 14 14 13 12 7 6 8 8 9 10 11 10 9 9 10 9 9 8 6 6 6 5 5 6 7 9 9 10 11 12 12 13 13
1 1 3 5 8 9 9 9 10 10 14 15 10 7 6 5 5 7 9 9 10 10 9 9 9 9 9 9 9 7 8 8 7 9 10 10 11 12 13 13 13 13 13 13
2 3 2 7 10 14 8 8 9 12 13 10 9 9 6 4 4 6 7 8 8 8 8 8 8 8 8 8 8 9 10 10 10 10 11 12 12 13 13 13 13 13 13 13
1 2 5 6 2 8 8 8 10 10 11 9 9 6 1 1 2 5 6 6 6 6 6 6 7 7 7 7 8 9 9 9 10 10 11 12 12 13 12 11 11 11 12 12
1 2 7 7 3 7 6 5 7 11 13 10 4 3 0 1 1 2 3 4 4 5 5 6 6 6 6 7 8 8 8 8 9 9 10 11 11 11 10 10 11 10 9 10
2 3 5 4 0 3 4 3 3 5 8 6 1 3 2 2 1 2 2 3 4 4 5 6 6 6 7 7 8 8 8 8 8 9 10 10 10 10 9 9 10 9 9 8
4 4 7 7 2 3 2 3 2 3 5 3 4 4 2 3 2 1 2 3 4 4 5 6 6 6 7 8 8 7 7 8 9 9 9 10 10 9 9 9 9 8 8 7
5 6 8 3 5 5 4 2 2 3 3 3 4 4 4 4 3 2 2 3 4 5 5 6 6 6 7 8 7 7 8 9 10 9 8 8 9 8 8 7 8 7 7 6
7 8 4 2 4 4 2 3 3 3 3 3 4 5 5 4 4 3 3 3 4 5 5 6 6 6 7 6 6 7 9 9 9 9 8 7 7 7 6 5 5 4 4 4
5 7 6 7 6 5 4 5 3 3 3 4 5 6 6 5 5 4 3 3 3 5 5 5 5 6 5 5 6 8 9 8 7 7 7 6 5 5 5 4 4 4 4 3
5 5 5 4 3 3 3 3 3 3 3 5 6 6 7 6 6 5 4 3 4 4 5 5 5 5 5 5 6 8 7 6 6 6 6 6 5 4 4 3 4 4 3 2
5 3 2 5 5 3 4 5 5 4 3 4 6 7 7 6 6 6 6 5 5 5 5 5 5 5 4 4 5 7 6 5 4 4 4 4 4 4 8 6 8 7 4 2
3 3 4 7 6 3 4 5 4 5 5 4 4 6 7 6 6 7 7 6 6 6 6 5 5 5 4 4 5 6 6 4 3 4 3 3 3 3 3 5 7 8 7 6
1 4 4 4 5 7 5 3 1 2 2 3 4 5 6 6 7 8 7 7 6 7 6 6 5 4 3 4 6 6 5 5 5 3 3 3 2 2 2 2 2 2 5 7
2 4 6 9 8 6 3 1 1 2 2 3 4 6 7 8 8 7 7 8 8 7 6 6 6 4 3 5 6 6 5 3 3 3 3 2 2 2 2 2 1 1 2 4
8 7 6 6 6 5 3 3 4 4 4 4 5 6 6 7 7 7 8 8 9 8 7 6 6 5 5 5 6 4 4 7 5 3 3 2 2 2 1 1 1 2 2 3
5 6 5 6 7 7 6 6 6 6 5 6 6 6 7 7 7 7 7 6 6 6 6 6 6 5 5 5 6 4 3 4 6 4 2 2 1 1 1 1 1 2 2 4
6 8 8 10 10 10 9 7 6 6 6 7 7 8 8 9 9 8 7 7 7 6 5 5 6 6 6 5 5 4 4 3 3 2 2 1 1 0 0 1 2 3 3 4
6 7 8 9 9 9 8 7 6 6 6 8 9 9 8 7 8 8 8 8 8 7 5 6 11 7 6 6 6 4 4 4 3 2 1 1 1 0 1 2 2 3 3 3
6 7 8 8 8 6 5 4 2 4 6 8 8 8 8 8 8 9 8 7 5 4 7 8 8 6 6 6 7 4 4 4 3 2 1 1 1 1 2 2 3 3 3 4
7 8 9 9 8 7 5 3 1 4 5 7 8 8 8 8 8 8 8 6 4 6 8 11 6 5 5 6 7 4 4 3 3 2 2 2 2 2 2 3 3 4 4 4
7 7 8 8 8 8 6 4 1 3 5 5 6 7 8 8 8 6 5 4 7 11 8 6 5 8 9 8 4 4 4 3 2 2 2 2 2 3 3 4 4 4 4 5
5 6 7 8 7 6 5 4 3 1 3 5 6 7 7 7 7 6 6 4 6 12 8 5 9 13 12 6 4 4 4 3 3 3 3 3 3 3 3 4 4 4 5 5
5 6 6 6 5 5 6 5 4 1 1 2 3 5 6 5 4 3 3 10 13 13 7 9 14 14 12 5 4 4 4 3 3 3 3 3 3 3 4 4 5 5 5 6
4 5 5 6 6 5 5 4 3 2 1 0 2 3 4 3 4 5 5 7 13 13 6 10 15 14 8 5 4 4 4 4 4 4 3 3 3 4 4 4 5 5 5 6
4 4 4 4 3 3 3 3 2 2 1 1 1 1 2 2 4 5 5 6 9 11 7 5 7 9 5 5 4 4 4 3 3 3 3 4 4 4 5 5 6 6 6 6
3 3 3 3 3 3 3 3 3 3 2 2 2 2 3 3 4 4 5 6 6 6 5 5 5 6 5 5 4 4 3 3 3 3 3 4 4 4 5 6 5 5 6 6
Wind_Direction
226 244 179 200 191 185 193 193 205 237 248 274 287 294 301 311 333 335 337 342 341 339 340 346 350 351 351 350 354 7 24 32 40 63 79 88 94 100 104 107 110 112 111 110
312 280 217 233 221 204 211 218 236 262 277 271 278 291 297 320 338 333 337 338 340 343 349 352 353 355 0 5 8 27 45 48 53 68 75 81 87 92 94 97 101 103 107 108
287 283 298 257 222 200 198 205 204 233 248 273 292 297 306 327 335 330 331 336 343 346 349 354 359 4 11 15 24 40 50 54 59 71 77 81 86 89 92 94 96 98 100 102
264 342 258 246 208 181 196 226 215 235 257 272 277 296 315 86 331 330 334 341 346 346 355 4 9 16 23 32 41 49 55 61 67 75 82 85 88 90 92 94 95 96 97 99
219 273 281 291 225 167 181 255 223 230 256 272 299 325 307 89 29 342 338 349 352 354 4 13 19 24 35 43 48 53 57 64 71 80 86 88 89 90 91 94 93 93 94 96
208 249 258 260 291 166 135 274 245 216 253 274 325 308 274 129 68 22 11 13 15 12 19 26 27 32 46 48 50 53 57 64 69 76 82 84 85 86 86 88 89 89 86 86
220 244 265 252 232 140 169 236 278 240 255 254 218 218 146 135 116 78 45 41 40 35 32 29 32 46 53 50 47 50 60 67 70 72 76 80 81 80 84 87 87 88 88 80
191 214 251 237 147 179 224 259 277 265 255 242 212 144 140 142 131 111 80 61 55 52 42 35 41 56 62 53 50 60 66 67 65 66 70 75 81 80 82 92 95 94 91 77
200 218 237 215 215 239 218 252 259 242 245 216 188 178 165 156 146 129 106 85 73 73 62 47 45 59 70 59 63 72 73 70 70 69 66 69 79 84 79 77 87 88 86 82
242 259 259 263 265 265 231 230 240 234 233 197 194 180 166 160 154 142 126 104 94 89 80 65 56 63 69 73 77 81 78 72 69 71 67 59 62 70 78 80 85 90 93 92
242 274 303 296 267 266 258 240 242 238 214 204 190 180 169 163 159 150 137 123 112 108 103 94 82 73 70 79 91 89 82 77 72 71 73 68 67 73 86 87 116 115 115 127
224 242 245 276 293 298 273 262 246 227 219 201 191 179 164 160 155 148 143 134 126 122 119 112 102 90 82 89 100 102 94 82 78 78 77 78 78 70 78 89 89 100 134 153
268 302 257 265 287 299 282 270 246 217 211 202 191 173 157 150 149 145 143 144 142 138 133 126 116 105 100 104 103 102 106 103 92 91 91 90 90 93 75 55 59 54 45 35
2 350 310 314 312 312 293 281 229 200 197 185 168 156 147 140 144 150 153 149 141 136 135 132 124 118 121 118 111 107 104 106 103 96 95 93 93 91 89 78 31 1 8 9
23 340 283 288 294 295 294 255 216 213 183 164 158 157 155 154 158 156 148 143 139 138 140 140 137 140 138 127 118 115 110 107 104 103 101 99 95 89 80 71 53 357 343 349
311 300 289 291 299 302 287 259 246 236 204 186 175 171 164 154 148 145 147 150 154 160 161 156 155 156 145 130 120 115 121 133 129 120 110 99 90 85 71 46 14 345 332 318
309 313 318 311 308 300 279 254 242 231 205 192 182 162 148 142 142 148 152 153 151 153 156 156 153 146 140 135 130 128 125 131 127 112 104 102 93 79 49 345 315 307 299 301
271 279 283 285 287 288 283 262 240 219 201 186 162 155 159 164 166 161 151 138 130 129 143 146 143 139 137 137 133 129 124 119 116 115 110 119 120 87 330 307 302 300 296 304
305 302 301 297 289 280 275 265 240 209 180 163 164 170 171 168 160 153 150 152 157 161 170 162 156 145 140 146 134 122 123 123 118 115 113 127 102 338 298 293 289 288 289 290
334 330 326 322 321 311 299 284 217 174 163 160 161 163 164 162 156 157 162 170 177 169 158 161 150 142 141 144 135 124 130 136 141 145 154 177 242 273 281 283 283 283 282 282
345 343 345 345 343 345 344 337 161 159 159 162 168 173 169 161 160 161 167 177 172 153 158 161 149 145 145 147 137 129 135 144 155 172 195 223 251 268 275 279 283 285 286 287
350 348 350 349 350 352 352 359 59 144 157 163 162 159 159 163 167 172 182 172 160 167 160 154 150 160 162 147 132 139 145 156 170 187 209 230 247 263 272 276 278 282 283 284
351 349 350 350 345 341 352 10 26 130 173 179 178 176 176 175 173 174 185 169 159 170 161 161 170 171 163 144 142 149 158 171 190 209 224 234 247 258 268 275 275 277 281 283
352 351 346 342 346 358 0 354 350 337 211 189 188 179 172 169 177 180 146 167 174 171 165 174 176 175 159 137 148 157 171 187 203 218 233 245 254 261 265 270 276 278 277 280
346 341 346 353 359 353 340 336 344 352 2 178 180 178 176 173 173 168 157 167 175 167 162 180 180 173 150 146 160 170 183 199 208 215 227 243 255 262 265 268 270 276 279 278
345 340 336 332 329 326 327 328 326 319 305 264 213 177 162 147 145 152 159 167 172 168 162 164 164 157 144 157 167 179 191 217 242 241 236 248 258 263 268 272 275 274 275 275
333 331 330 333 334 334 327 319 307 296 276 243 230 193 169 157 155 161 162 162 160 155 151 147 140 140 149 159 170 183 196 210 225 237 245 250 256 260 267 272 274 276 277 278